QPF
0.03 0.03 0.04 0.03 0.03 0.03 0.03 0.03 0.02 0.02 0.01 0.01 0.02 0.02 0.03 0.04 0.05 0.05 0.03 0.03 0.03 0.03 0.03 0.02 0.02 0.01 0.02 0.02 0.02 0.02 0.02 0.03 0.02 0.02 0.02 0.02 0.02 0.02
0.03 0.03 0.02 0.02 0.02 0.02 0.02 0.02 0.02 0.02 0.02 0.01 0.01 0.02 0.03 0.03 0.04 0.04 0.04 0.04 0.04 0.04 0.04 0.03 0.02 0.01 0.02 0.02 0.02 0.02 0.03 0.03 0.02 0.02 0.02 0.02 0.02 0.02
0.03 0.02 0.01 0.01 0.01 0.01 0.02 0.02 0.02 0.02 0.02 0.02 0.01 0.02 0.04 0.04 0.03 0.04 0.05 0.04 0.05 0.05 0.04 0.04 0.03 0.03 0.02 0.02 0.02 0.02 0.03 0.03 0.03 0.02 0.02 0.02 0.01 0.02
0.03 0.02 0.02 0.01 0.01 0.01 0.01 0.02 0.02 0.02 0.02 0.02 0.02 0.02 0.04 0.04 0.03 0.03 0.04 0.04 0.05 0.05 0.04 0.04 0.04 0.03 0.03 0.03 0.02 0.02 0.03 0.03 0.02 0.02 0.02 0.01 0.01 0.02
0.02 0.02 0.02 0.02 0.01 0.01 0.01 0.01 0.02 0.02 0.02 0.02 0.02 0.02 0.02 0.03 0.04 0.03 0.03 0.04 0.04 0.03 0.03 0.04 0.04 0.04 0.04 0.04 0.03 0.02 0.02 0.02 0.02 0.02 0.02 0.02 0.01 0.01
0.02 0.03 0.02 0.02 0.01 0.01 0.01 0.01 0.01 0.02 0.02 0.02 0.02 0.02 0.02 0.02 0.03 0.02 0.02 0.03 0.03 0.02 0.02 0.03 0.04 0.04 0.05 0.05 0.04 0.03 0.02 0.02 0.02 0.02 0.02 0.02 0.01 0.01
0.02 0.02 0.03 0.03 0.02 0.01 0.01 0.01 0.02 0.02 0.02 0.02 0.02 0.02 0.02 0.01 0.01 0.02 0.02 0.02 0.02 0.01 0.01 0.02 0.04 0.04 0.04 0.05 0.06 0.04 0.03 0.03 0.03 0.02 0.02 0.02 0.02 0.02
0.03 0.03 0.02 0.03 0.02 0.02 0.02 0.02 0.02 0.02 0.02 0.02 0.02 0.02 0.02 0.01 0.01 0.01 0.02 0.02 0.01 0.01 0.01 0.01 0.03 0.04 0.05 0.05 0.06 0.05 0.04 0.04 0.04 0.03 0.03 0.02 0.02 0.02
0.03 0.03 0.02 0.02 0.02 0.02 0.02 0.02 0.02 0.02 0.02 0.01 0.01 0.01 0.02 0.01 0.01 0.01 0.02 0.02 0.01 0.01 0.01 0.01 0.02 0.04 0.05 0.06 0.06 0.05 0.05 0.04 0.04 0.04 0.04 0.03 0.03 0.02
0.02 0.02 0.01 0.02 0.02 0.02 0.02 0.01 0.01 0.01 0.01 0.01 0.01 0.01 0.01 0.01 0.01 0.01 0.02 0.02 0.02 0.01 0.01 0.01 0.02 0.03 0.04 0.05 0.06 0.05 0.05 0.05 0.04 0.04 0.04 0.04 0.03 0.03
0.01 0.01 0.01 0.01 0.01 0.01 0.02 0.02 0.01 0.01 0.01 0.01 0.01 0.01 0.02 0.02 0.02 0.02 0.03 0.04 0.03 0.02 0.01 0.01 0.02 0.02 0.03 0.03 0.04 0.04 0.04 0.04 0.04 0.04 0.04 0.04 0.03 0.03
0.01 0.01 0.01 0.01 0.01 0.01 0.02 0.02 0.02 0.01 0.01 0.01 0.01 0.01 0.02 0.02 0.02 0.02 0.02 0.03 0.02 0.02 0.01 0.01 0.01 0.02 0.02 0.02 0.02 0.02 0.02 0.02 0.02 0.02 0.03 0.03 0.03 0.03
0.01 0.00 0.00 0.01 0.01 0.01 0.01 0.01 0.02 0.02 0.02 0.02 0.02 0.02 0.03 0.03 0.03 0.02 0.02 0.02 0.02 0.01 0.01 0.01 0.01 0.01 0.02 0.02 0.02 0.02 0.02 0.02 0.02 0.02 0.02 0.02 0.02 0.03
0.01 0.00 0.00 0.01 0.01 0.01 0.01 0.01 0.01 0.02 0.02 0.03 0.04 0.04 0.04 0.04 0.03 0.03 0.02 0.03 0.03 0.02 0.02 0.02 0.02 0.02 0.02 0.02 0.02 0.02 0.02 0.02 0.01 0.01 0.01 0.02 0.02 0.03
0.01 0.00 0.00 0.01 0.01 0.01 0.01 0.01 0.02 0.02 0.02 0.03 0.03 0.04 0.03 0.03 0.03 0.03 0.03 0.03 0.04 0.04 0.03 0.03 0.03 0.03 0.03 0.03 0.02 0.02 0.01 0.01 0.01 0.01 0.01 0.02 0.02 0.02
0.01 0.00 0.00 0.00 0.01 0.01 0.01 0.01 0.02 0.02 0.02 0.03 0.03 0.03 0.03 0.03 0.03 0.03 0.03 0.04 0.05 0.05 0.04 0.03 0.03 0.03 0.03 0.03 0.03 0.02 0.02 0.02 0.01 0.01 0.01 0.02 0.02 0.03
0.01 0.00 0.00 0.01 0.01 0.01 0.01 0.01 0.02 0.02 0.02 0.02 0.02 0.02 0.02 0.02 0.03 0.03 0.03 0.03 0.04 0.03 0.03 0.03 0.03 0.03 0.03 0.03 0.03 0.03 0.02 0.02 0.02 0.01 0.02 0.01 0.02 0.02
0.01 0.01 0.01 0.01 0.01 0.01 0.01 0.01 0.01 0.01 0.02 0.01 0.01 0.01 0.01 0.02 0.02 0.03 0.02 0.03 0.03 0.02 0.03 0.03 0.03 0.03 0.03 0.03 0.02 0.02 0.02 0.02 0.02 0.02 0.02 0.02 0.01 0.01
0.01 0.01 0.01 0.01 0.01 0.01 0.01 0.01 0.01 0.01 0.01 0.01 0.01 0.01 0.01 0.01 0.02 0.02 0.02 0.02 0.02 0.02 0.02 0.02 0.03 0.04 0.04 0.03 0.02 0.01 0.01 0.01 0.02 0.02 0.01 0.02 0.01 0.01
0.01 0.01 0.02 0.01 0.01 0.01 0.01 0.01 0.01 0.01 0.01 0.01 0.01 0.01 0.01 0.01 0.02 0.02 0.02 0.02 0.02 0.02 0.02 0.02 0.03 0.03 0.04 0.03 0.02 0.01 0.01 0.01 0.02 0.02 0.01 0.01 0.01 0.02
0.02 0.02 0.02 0.02 0.02 0.01 0.01 0.01 0.01 0.01 0.01 0.01 0.01 0.01 0.01 0.01 0.01 0.02 0.02 0.02 0.02 0.02 0.02 0.02 0.01 0.02 0.03 0.03 0.03 0.02 0.02 0.02 0.02 0.02 0.02 0.02 0.02 0.01
0.02 0.02 0.01 0.02 0.02 0.02 0.01 0.01 0.01 0.01 0.01 0.01 0.01 0.01 0.01 0.01 0.01 0.01 0.01 0.02 0.02 0.02 0.02 0.01 0.01 0.02 0.03 0.03 0.03 0.02 0.02 0.02 0.02 0.02 0.02 0.03 0.03 0.02
0.02 0.02 0.01 0.01 0.01 0.01 0.01 0.01 0.01 0.01 0.01 0.01 0.01 0.01 0.01 0.01 0.01 0.02 0.01 0.01 0.02 0.02 0.01 0.01 0.01 0.02 0.02 0.02 0.02 0.02 0.02 0.02 0.02 0.02 0.02 0.02 0.02 0.02
MSLP
1015.91 1015.35 1014.80 1014.32 1013.93 1013.68 1013.59 1013.66 1013.90 1014.29 1014.80 1015.42 1016.08 1016.74 1017.35 1017.86 1018.25 1018.47 1018.54 1018.48 1018.32 1018.10 1017.90 1017.75 1017.70 1017.79 1018.01 1018.37 1018.83 1019.35 1019.90 1020.44 1020.92 1021.33 1021.66 1021.89 1022.04 1022.13
1016.37 1015.86 1015.33 1014.85 1014.45 1014.17 1014.03 1014.05 1014.22 1014.54 1014.99 1015.54 1016.15 1016.78 1017.37 1017.89 1018.31 1018.59 1018.74 1018.76 1018.68 1018.54 1018.38 1018.25 1018.19 1018.23 1018.39 1018.66 1019.04 1019.49 1019.98 1020.47 1020.93 1021.34 1021.69 1021.95 1022.14 1022.25
1016.83 1016.39 1015.93 1015.49 1015.10 1014.81 1014.64 1014.61 1014.72 1014.97 1015.34 1015.80 1016.34 1016.91 1017.47 1017.98 1018.42 1018.76 1018.99 1019.11 1019.12 1019.07 1018.98 1018.89 1018.84 1018.86 1018.96 1019.16 1019.44 1019.80 1020.21 1020.63 1021.05 1021.44 1021.78 1022.05 1022.26 1022.41
1017.27 1016.94 1016.57 1016.19 1015.85 1015.58 1015.40 1015.34 1015.39 1015.57 1015.86 1016.23 1016.68 1017.18 1017.69 1018.18 1018.63 1019.01 1019.30 1019.50 1019.62 1019.66 1019.65 1019.61 1019.58 1019.58 1019.64 1019.76 1019.96 1020.22 1020.53 1020.88 1021.24 1021.59 1021.91 1022.18 1022.40 1022.56
1017.70 1017.48 1017.22 1016.93 1016.66 1016.43 1016.27 1016.20 1016.22 1016.33 1016.54 1016.83 1017.19 1017.60 1018.05 1018.50 1018.93 1019.33 1019.66 1019.94 1020.13 1020.25 1020.31 1020.33 1020.32 1020.31 1020.32 1020.38 1020.49 1020.66 1020.88 1021.15 1021.44 1021.75 1022.04 1022.30 1022.52 1022.70
1018.11 1018.01 1017.85 1017.67 1017.48 1017.32 1017.19 1017.13 1017.13 1017.20 1017.34 1017.55 1017.82 1018.15 1018.52 1018.91 1019.31 1019.70 1020.06 1020.37 1020.61 1020.79 1020.90 1020.95 1020.96 1020.94 1020.92 1020.92 1020.96 1021.05 1021.18 1021.38 1021.61 1021.86 1022.12 1022.37 1022.59 1022.77
1018.48 1018.49 1018.45 1018.37 1018.27 1018.17 1018.10 1018.05 1018.05 1018.09 1018.18 1018.32 1018.52 1018.77 1019.06 1019.39 1019.74 1020.10 1020.46 1020.77 1021.04 1021.25 1021.39 1021.46 1021.47 1021.44 1021.39 1021.34 1021.32 1021.33 1021.40 1021.53 1021.70 1021.91 1022.14 1022.37 1022.59 1022.78
1018.82 1018.91 1018.96 1018.97 1018.96 1018.93 1018.91 1018.89 1018.90 1018.92 1018.98 1019.07 1019.21 1019.39 1019.62 1019.89 1020.19 1020.51 1020.84 1021.14 1021.41 1021.63 1021.77 1021.85 1021.85 1021.81 1021.73 1021.64 1021.57 1021.53 1021.54 1021.62 1021.74 1021.91 1022.12 1022.33 1022.53 1022.71
1019.10 1019.25 1019.37 1019.45 1019.51 1019.54 1019.57 1019.58 1019.61 1019.63 1019.68 1019.74 1019.84 1019.98 1020.16 1020.38 1020.63 1020.92 1021.21 1021.49 1021.74 1021.94 1022.08 1022.15 1022.14 1022.08 1021.98 1021.86 1021.76 1021.68 1021.66 1021.69 1021.78 1021.91 1022.08 1022.26 1022.45 1022.61
1019.31 1019.50 1019.66 1019.79 1019.90 1019.99 1020.06 1020.11 1020.15 1020.20 1020.25 1020.31 1020.39 1020.51 1020.66 1020.85 1021.07 1021.32 1021.59 1021.84 1022.07 1022.26 1022.38 1022.43 1022.41 1022.34 1022.22 1022.09 1021.97 1021.87 1021.81 1021.81 1021.86 1021.96 1022.09 1022.24 1022.38 1022.52
1019.46 1019.66 1019.85 1020.02 1020.17 1020.29 1020.40 1020.49 1020.57 1020.64 1020.71 1020.79 1020.88 1021.00 1021.14 1021.32 1021.53 1021.76 1022.00 1022.24 1022.44 1022.61 1022.71 1022.75 1022.73 1022.65 1022.53 1022.39 1022.25 1022.14 1022.06 1022.03 1022.05 1022.11 1022.19 1022.29 1022.39 1022.48
1019.57 1019.78 1019.98 1020.17 1020.35 1020.51 1020.66 1020.79 1020.90 1021.01 1021.12 1021.22 1021.34 1021.48 1021.64 1021.82 1022.03 1022.25 1022.48 1022.69 1022.88 1023.02 1023.11 1023.14 1023.11 1023.03 1022.91 1022.77 1022.63 1022.51 1022.42 1022.37 1022.35 1022.37 1022.40 1022.44 1022.48 1022.51
1019.66 1019.87 1020.09 1020.31 1020.52 1020.72 1020.90 1021.07 1021.23 1021.38 1021.53 1021.68 1021.83 1021.99 1022.17 1022.37 1022.58 1022.79 1023.00 1023.20 1023.37 1023.49 1023.56 1023.58 1023.55 1023.47 1023.35 1023.22 1023.08 1022.96 1022.86 1022.79 1022.74 1022.71 1022.69 1022.66 1022.63 1022.59
1019.75 1019.98 1020.22 1020.48 1020.73 1020.97 1021.19 1021.41 1021.61 1021.81 1022.00 1022.18 1022.36 1022.55 1022.75 1022.95 1023.16 1023.36 1023.55 1023.73 1023.87 1023.97 1024.02 1024.03 1023.99 1023.91 1023.80 1023.67 1023.54 1023.42 1023.31 1023.22 1023.14 1023.06 1022.99 1022.91 1022.82 1022.71
1019.85 1020.12 1020.41 1020.70 1020.99 1021.28 1021.56 1021.82 1022.06 1022.30 1022.52 1022.73 1022.94 1023.14 1023.34 1023.54 1023.73 1023.91 1024.08 1024.22 1024.33 1024.40 1024.43 1024.42 1024.36 1024.28 1024.17 1024.05 1023.92 1023.80 1023.68 1023.58 1023.47 1023.36 1023.25 1023.11 1022.97 1022.81
1019.96 1020.28 1020.62 1020.97 1021.31 1021.65 1021.97 1022.27 1022.55 1022.81 1023.06 1023.28 1023.50 1023.70 1023.90 1024.08 1024.24 1024.39 1024.52 1024.62 1024.69 1024.72 1024.72 1024.68 1024.62 1024.52 1024.41 1024.29 1024.17 1024.04 1023.92 1023.79 1023.67 1023.53 1023.38 1023.22 1023.03 1022.84
1020.06 1020.43 1020.83 1021.23 1021.63 1022.01 1022.36 1022.70 1023.00 1023.28 1023.54 1023.78 1023.99 1024.18 1024.35 1024.50 1024.64 1024.74 1024.83 1024.88 1024.91 1024.90 1024.87 1024.81 1024.72 1024.62 1024.50 1024.37 1024.24 1024.11 1023.98 1023.84 1023.70 1023.54 1023.37 1023.18 1022.98 1022.76
1020.11 1020.54 1020.99 1021.44 1021.87 1022.28 1022.66 1023.02 1023.34 1023.63 1023.89 1024.12 1024.33 1024.50 1024.65 1024.78 1024.87 1024.94 1024.99 1025.00 1024.99 1024.95 1024.89 1024.80 1024.70 1024.58 1024.45 1024.31 1024.17 1024.02 1023.88 1023.72 1023.56 1023.39 1023.20 1023.00 1022.79 1022.57
1020.09 1020.57 1021.05 1021.53 1021.98 1022.41 1022.81 1023.17 1023.50 1023.79 1024.05 1024.28 1024.47 1024.64 1024.78 1024.89 1024.96 1025.01 1025.02 1025.01 1024.97 1024.91 1024.82 1024.72 1024.60 1024.47 1024.32 1024.17 1024.01 1023.85 1023.67 1023.50 1023.31 1023.11 1022.91 1022.70 1022.48 1022.27
1020.00 1020.50 1021.00 1021.49 1021.95 1022.37 1022.77 1023.12 1023.45 1023.74 1024.00 1024.24 1024.44 1024.61 1024.74 1024.85 1024.92 1024.96 1024.97 1024.95 1024.90 1024.83 1024.73 1024.62 1024.49 1024.34 1024.18 1024.01 1023.82 1023.63 1023.42 1023.21 1022.99 1022.77 1022.54 1022.31 1022.09 1021.87
1019.86 1020.36 1020.86 1021.33 1021.77 1022.18 1022.56 1022.91 1023.23 1023.52 1023.79 1024.04 1024.25 1024.44 1024.60 1024.72 1024.80 1024.85 1024.87 1024.86 1024.81 1024.74 1024.64 1024.52 1024.38 1024.22 1024.05 1023.85 1023.64 1023.41 1023.16 1022.91 1022.65 1022.38 1022.12 1021.86 1021.62 1021.39
1019.69 1020.18 1020.65 1021.10 1021.51 1021.90 1022.25 1022.59 1022.90 1023.20 1023.49 1023.75 1023.99 1024.21 1024.39 1024.54 1024.65 1024.72 1024.75 1024.75 1024.71 1024.64 1024.55 1024.43 1024.28 1024.11 1023.91 1023.69 1023.44 1023.17 1022.88 1022.58 1022.27 1021.96 1021.65 1021.36 1021.09 1020.84
1019.54 1020.00 1020.44 1020.85 1021.23 1021.59 1021.93 1022.25 1022.56 1022.87 1023.17 1023.46 1023.73 1023.97 1024.18 1024.35 1024.48 1024.57 1024.61 1024.61 1024.58 1024.51 1024.41 1024.28 1024.13 1023.94 1023.72 1023.47 1023.19 1022.88 1022.55 1022.19 1021.83 1021.48 1021.13 1020.80 1020.50 1020.23
Thickness
5487 5489 5491 5493 5495 5497 5498 5499 5499 5500 5505 5509 5510 5512 5512 5514 5515 5516 5517 5518 5518 5520 5521 5521 5521 5521 5521 5520 5520 5520 5519 5519 5518 5518 5518 5517 5517 5516
5476 5477 5479 5481 5484 5486 5487 5489 5490 5490 5492 5497 5498 5499 5500 5502 5503 5504 5505 5506 5507 5508 5509 5510 5510 5510 5510 5509 5509 5509 5508 5508 5508 5507 5506 5505 5505 5504
5465 5467 5468 5470 5472 5474 5476 5478 5479 5480 5480 5483 5485 5486 5488 5489 5491 5492 5493 5495 5496 5497 5498 5499 5499 5499 5499 5499 5498 5497 5497 5497 5496 5495 5494 5494 5493 5492
5455 5456 5457 5459 5461 5462 5464 5466 5467 5469 5469 5470 5472 5473 5475 5477 5478 5480 5481 5482 5483 5485 5486 5487 5487 5488 5488 5488 5487 5486 5486 5485 5484 5483 5482 5481 5480 5479
5445 5446 5447 5449 5450 5451 5453 5454 5455 5457 5457 5458 5459 5460 5461 5463 5465 5467 5469 5469 5471 5473 5474 5474 5475 5476 5476 5476 5475 5475 5474 5473 5472 5471 5469 5468 5467 5466
5435 5436 5437 5439 5439 5439 5441 5442 5442 5443 5444 5445 5446 5447 5448 5450 5452 5453 5454 5456 5458 5460 5460 5461 5462 5463 5463 5463 5463 5462 5461 5460 5459 5457 5456 5455 5454 5453
5425 5426 5427 5428 5428 5429 5430 5430 5430 5430 5431 5432 5433 5434 5435 5436 5437 5439 5441 5443 5444 5445 5446 5448 5449 5450 5449 5449 5449 5448 5447 5446 5445 5444 5443 5443 5442 5441
5415 5415 5416 5417 5418 5419 5419 5420 5419 5419 5419 5419 5420 5420 5422 5423 5424 5425 5426 5427 5429 5431 5431 5433 5434 5435 5436 5436 5436 5435 5433 5433 5432 5431 5431 5431 5430 5430
5404 5404 5406 5406 5406 5407 5407 5408 5408 5407 5407 5407 5407 5408 5409 5410 5411 5412 5412 5412 5414 5416 5417 5419 5420 5421 5422 5422 5422 5421 5420 5420 5419 5419 5419 5419 5419 5419
5394 5395 5395 5395 5395 5395 5396 5396 5395 5396 5396 5396 5397 5398 5398 5398 5399 5399 5400 5400 5402 5402 5403 5404 5406 5407 5409 5409 5409 5408 5407 5407 5406 5406 5407 5407 5407 5407
5385 5385 5385 5385 5385 5385 5385 5384 5384 5384 5385 5386 5387 5387 5388 5389 5389 5388 5388 5388 5389 5390 5390 5390 5392 5392 5395 5396 5396 5395 5395 5394 5395 5395 5395 5395 5396 5396
5375 5375 5376 5376 5376 5375 5374 5374 5373 5374 5375 5375 5376 5377 5377 5378 5379 5379 5379 5379 5378 5378 5378 5377 5377 5377 5379 5382 5383 5383 5382 5383 5383 5383 5384 5384 5385 5385
5366 5366 5366 5367 5367 5367 5366 5365 5365 5366 5365 5365 5366 5367 5368 5369 5370 5370 5371 5370 5369 5368 5368 5366 5365 5364 5364 5367 5370 5371 5371 5371 5372 5372 5373 5374 5374 5374
5357 5357 5357 5358 5358 5358 5357 5358 5358 5357 5357 5357 5357 5358 5359 5360 5360 5361 5361 5360 5360 5360 5359 5357 5356 5355 5354 5355 5357 5359 5360 5361 5361 5362 5363 5364 5364 5365
5349 5349 5349 5349 5349 5349 5349 5349 5349 5348 5348 5348 5348 5349 5350 5350 5351 5351 5352 5352 5351 5350 5350 5349 5349 5347 5346 5346 5347 5348 5349 5350 5351 5352 5353 5354 5355 5356
5341 5341 5341 5341 5340 5341 5340 5340 5340 5340 5340 5340 5340 5340 5341 5342 5342 5342 5342 5343 5343 5342 5342 5342 5341 5340 5339 5339 5338 5339 5339 5340 5342 5343 5344 5345 5346 5347
5334 5333 5332 5331 5331 5331 5331 5331 5331 5331 5331 5331 5332 5332 5333 5333 5333 5333 5334 5334 5334 5334 5334 5334 5333 5333 5332 5332 5331 5332 5332 5332 5333 5334 5335 5337 5339 5340
5326 5325 5323 5323 5322 5322 5322 5322 5323 5323 5323 5323 5324 5324 5324 5325 5325 5325 5326 5326 5326 5326 5327 5327 5326 5326 5325 5325 5325 5325 5325 5325 5326 5327 5327 5329 5332 5333
5318 5317 5316 5316 5315 5315 5314 5314 5314 5315 5315 5316 5316 5317 5317 5317 5317 5318 5319 5319 5319 5319 5319 5319 5319 5318 5317 5317 5318 5318 5318 5318 5319 5320 5321 5322 5324 5326
5311 5310 5310 5309 5308 5308 5308 5308 5307 5307 5308 5308 5309 5309 5310 5310 5311 5311 5312 5312 5312 5312 5312 5312 5311 5311 5310 5310 5309 5311 5312 5312 5313 5314 5316 5317 5318 5321
5304 5304 5303 5303 5303 5302 5302 5302 5302 5302 5302 5302 5303 5303 5304 5304 5305 5305 5305 5306 5306 5306 5306 5306 5306 5306 5305 5305 5305 5306 5307 5308 5308 5309 5311 5312 5313 5315
5298 5297 5297 5297 5297 5297 5297 5297 5297 5297 5297 5297 5297 5298 5299 5299 5299 5300 5300 5300 5300 5300 5301 5301 5301 5302 5302 5302 5302 5302 5303 5304 5305 5305 5307 5307 5307 5309
5292 5292 5292 5292 5292 5292 5292 5292 5292 5292 5292 5293 5293 5294 5294 5294 5295 5295 5295 5295 5295 5296 5297 5297 5297 5298 5298 5298 5297 5298 5298 5299 5300 5301 5303 5304 5305 5306